{"data":{"norad_id":68768,"epoch":"2026-09-19T20:39:19.526688Z","epoch_age_seconds":95202,"freshness":"FRESH","line1":"1 68768U 26086C   26262.86064267  .00011348  00000+0  35320-3 0  9996","line2":"2 68768  97.2855 298.2470 0000302  92.7699 267.3578 15.33454491 23587","mean_motion":15.33454491,"eccentricity":3.02e-5,"inclination_deg":97.2855,"raan_deg":298.247,"arg_perigee_deg":92.7699,"mean_anomaly_deg":267.3578,"bstar":0.0003532,"rev_number":2358,"period_min":93.905623443767,"perigee_km":465.3082577968,"apogee_km":465.72161437374,"semimajor_km":6843.6519360853,"source":"CELESTRAK","updated_at":"2026-09-20T09:00:43.997179Z"}}